Location: Croagnes
(43.9363°N, 5.3265°E)
Time: 21:41:57
(UTC+00:00)

Meteor 1-16 Rocket - Pass Details

Date: 04 October 2020
Orbit: 790 x 908 km, 81.2° (Epoch: 22 October)

Event Time Altitude Azimuth Distance (km) Brightness Sun altitude
Rises 20:22:50 0° 211° (SSW) 3,521 7.4 -33.7°
Enters shadow 20:23:07 - 212° (SSW) 3,418 7.4 -33.8°
Exits shadow 20:27:56 23° 234° (SW) 1,798 6.0 -34.5°
Maximum altitude 20:30:57 39° 287° (WNW) 1,310 5.5 -35.0°
Drops below altitude 10° 20:36:24 10° 356° (N) 2,548 7.0 -35.8°
Sets 20:39:00 0° 4° (N) 3,474 7.7 -36.2°
